| time (UTC) | temp F | wind direction | speed MPH | gust MPH | rain 1hr in | rain 24hr in | rain mn in | humidity % | barometer mb |
| 20260510132401 | 54 | 22 | 2.0 | 5.0 | 0.00 | 0.00 | 0.00 | 50 | 1019.1 |
| 20260510131902 | 55 | 11 | 1.0 | 5.0 | 0.00 | 0.00 | 0.00 | 49 | 1019.2 |
| 20260510131401 | 55 | 111 | 3.0 | 8.0 | 0.00 | 0.00 | 0.00 | 51 | 1019.2 |
| 20260510130901 | 54 | 103 | 3.0 | 8.0 | 0.00 | 0.00 | 0.00 | 50 | 1019.3 |
| 20260510130401 | 54 | 26 | 1.0 | 3.0 | 0.00 | 0.00 | 0.00 | 49 | 1019.3 |
| 20260510125902 | 54 | 63 | 1.0 | 6.0 | 0.00 | 0.00 | 0.00 | 50 | 1019.4 |
| 20260510125401 | 53 | 78 | 2.0 | 7.0 | 0.00 | 0.00 | 0.00 | 51 | 1019.4 |
| 20260510124902 | 53 | 106 | 4.0 | 7.0 | 0.00 | 0.00 | 0.00 | 50 | 1019.5 |
| 20260510124402 | 53 | 110 | 3.0 | 7.0 | 0.00 | 0.00 | 0.00 | 52 | 1019.5 |
| 20260510123901 | 53 | 83 | 3.0 | 9.0 | 0.00 | 0.00 | 0.00 | 51 | 1019.5 |
| 20260510123401 | 53 | 58 | 3.0 | 8.0 | 0.00 | 0.00 | 0.00 | 50 | 1019.6 |
| 20260510122902 | 54 | 335 | 1.0 | 7.0 | 0.00 | 0.00 | 0.00 | 51 | 1019.7 |
| 20260510122401 | 54 | 89 | 2.0 | 7.0 | 0.00 | 0.00 | 0.00 | 52 | 1019.8 |
| 20260510121902 | 54 | 19 | 2.0 | 7.0 | 0.00 | 0.00 | 0.00 | 48 | 1019.8 |
| 20260510121402 | 53 | 75 | 1.0 | 5.0 | 0.00 | 0.00 | 0.00 | 51 | 1019.9 |
| 20260510120901 | 53 | 19 | 1.0 | 5.0 | 0.00 | 0.00 | 0.00 | 52 | 1020.0 |
| 20260510120401 | 53 | 37 | 2.0 | 3.0 | 0.00 | 0.00 | 0.00 | 54 | 1020.1 |
| 20260510115901 | 53 | 331 | 1.0 | 5.0 | 0.00 | 0.00 | 0.00 | 52 | 1020.1 |
| 20260510115401 | 52 | 1 | 2.0 | 5.0 | 0.00 | 0.00 | 0.00 | 53 | 1020.1 |
| 20260510114901 | 52 | 7 | 3.0 | 6.0 | 0.00 | 0.00 | 0.00 | 54 | 1020.1 |
| 20260510113901 | 54 | 21 | 5.0 | 8.0 | 0.00 | 0.00 | 0.00 | 55 | 1020.3 |
| 20260510113401 | 54 | 118 | 2.0 | 7.0 | 0.00 | 0.00 | 0.00 | 54 | 1020.3 |
| 20260510112902 | 53 | 271 | 2.0 | 8.0 | 0.00 | 0.00 | 0.00 | 57 | 1020.4 |
| 20260510112401 | 53 | 29 | 3.0 | 7.0 | 0.00 | 0.00 | 0.00 | 57 | 1020.4 |
| 20260510111901 | 53 | 30 | 3.0 | 10.0 | 0.00 | 0.00 | 0.00 | 57 | 1020.5 |
| 20260510111401 | 53 | 62 | 2.0 | 10.0 | 0.00 | 0.00 | 0.00 | 58 | 1020.5 |
| 20260510110901 | 52 | 93 | 5.0 | 10.0 | 0.00 | 0.00 | 0.00 | 59 | 1020.6 |
| 20260510110401 | 52 | 79 | 5.0 | 8.0 | 0.00 | 0.00 | 0.00 | 58 | 1020.7 |
| 20260510105901 | 52 | 73 | 2.0 | 8.0 | 0.00 | 0.00 | 0.00 | 57 | 1020.8 |
| 20260510105403 | 51 | 53 | 3.0 | 8.0 | 0.00 | 0.00 | 0.00 | 62 | 1020.8 |
| 20260510104901 | 50 | 165 | 1.0 | 5.0 | 0.00 | 0.00 | 0.00 | 63 | 1020.9 |
| 20260510103400 | 50 | 22 | 2.0 | 7.0 | 0.00 | 0.00 | 0.00 | 64 | 1021.1 |
| 20260510102402 | 49 | 53 | 0.0 | 7.0 | 0.00 | 0.00 | 0.00 | 66 | 1021.2 |
| 20260510101901 | 49 | 7 | 3.0 | 7.0 | 0.00 | 0.00 | 0.00 | 65 | 1021.2 |
| 20260510101401 | 49 | 1 | 2.0 | 8.0 | 0.00 | 0.00 | 0.00 | 65 | 1021.2 |
| 20260510100902 | 49 | 355 | 2.0 | 3.0 | 0.00 | 0.00 | 0.00 | 64 | 1021.2 |
| 20260510100401 | 49 | 307 | 3.0 | 7.0 | 0.00 | 0.01 | 0.00 | 63 | 1021.3 |
| 20260510095902 | 49 | 125 | 1.0 | 7.0 | 0.00 | 0.01 | 0.00 | 67 | 1021.4 |
| 20260510095401 | 49 | 44 | 1.0 | 7.0 | 0.00 | 0.02 | 0.00 | 66 | 1021.4 |
| 20260510094901 | 49 | 37 | 3.0 | 10.0 | 0.00 | 0.02 | 0.00 | 65 | 1021.4 |
| 20260510094402 | 49 | 88 | 2.0 | 6.0 | 0.00 | 0.05 | 0.00 | 65 | 1021.5 |
| 20260510093901 | 50 | 340 | 3.0 | 7.0 | 0.00 | 0.06 | 0.00 | 65 | 1021.6 |
| 20260510093402 | 50 | 52 | 3.0 | 14.0 | 0.00 | 0.06 | 0.00 | 66 | 1021.6 |
| 20260510092901 | 49 | 353 | 4.0 | 12.0 | 0.00 | 0.06 | 0.00 | 65 | 1021.6 |
| 20260510092401 | 49 | 30 | 3.0 | 8.0 | 0.00 | 0.06 | 0.00 | 65 | 1021.7 |
| 20260510091901 | 49 | 55 | 1.0 | 6.0 | 0.00 | 0.06 | 0.00 | 67 | 1021.8 |
| 20260510091401 | 49 | 33 | 2.0 | 8.0 | 0.00 | 0.06 | 0.00 | 68 | 1021.8 |
| 20260510090901 | 49 | 314 | 2.0 | 7.0 | 0.00 | 0.06 | 0.00 | 68 | 1021.9 |
| 20260510085901 | 48 | 24 | 4.0 | 9.0 | 0.00 | 0.06 | 0.00 | 68 | 1021.9 |
| 20260510085401 | 48 | 189 | 2.0 | 9.0 | 0.00 | 0.06 | 0.00 | 69 | 1021.9 |
| 20260510084901 | 47 | 9 | 3.0 | 8.0 | 0.00 | 0.06 | 0.00 | 69 | 1021.9 |
| 20260510083400 | 48 | 74 | 5.0 | 8.0 | 0.00 | 0.06 | 0.00 | 70 | 1022.0 |
| 20260510082901 | 48 | 37 | 3.0 | 8.0 | 0.00 | 0.06 | 0.00 | 71 | 1022.0 |
| 20260510082401 | 47 | 48 | 1.0 | 7.0 | 0.00 | 0.06 | 0.00 | 72 | 1022.1 |
| 20260510081901 | 47 | 81 | 5.0 | 9.0 | 0.00 | 0.06 | 0.00 | 74 | 1022.1 |
| 20260510080901 | 45 | 358 | 3.0 | 8.0 | 0.00 | 0.06 | 0.00 | 73 | 1022.1 |
| 20260510080401 | 45 | 47 | 3.0 | 12.0 | 0.00 | 0.06 | 0.00 | 73 | 1022.1 |
| 20260510075901 | 46 | 10 | 3.0 | 6.0 | 0.00 | 0.06 | 0.00 | 74 | 1022.1 |
| 20260510075401 | 46 | 59 | 3.0 | 7.0 | 0.00 | 0.06 | 0.00 | 74 | 1022.1 |
| 20260510074901 | 46 | 142 | 2.0 | 9.0 | 0.00 | 0.06 | 0.00 | 75 | 1022.0 |
| 20260510074400 | 46 | 55 | 1.0 | 3.0 | 0.00 | 0.06 | 0.00 | 78 | 1022.1 |
| 20260510073902 | 45 | 16 | 2.0 | 6.0 | 0.00 | 0.06 | 0.00 | 77 | 1022.1 |
| 20260510073401 | 45 | 52 | 3.0 | 9.0 | 0.00 | 0.06 | 0.00 | 78 | 1022.1 |
| 20260510072901 | 45 | 327 | 2.0 | 3.0 | 0.00 | 0.06 | 0.00 | 78 | 1022.1 |
| 20260510072401 | 44 | 341 | 2.0 | 12.0 | 0.00 | 0.06 | 0.00 | 78 | 1022.1 |
| 20260510071901 | 44 | 73 | 2.0 | 8.0 | 0.00 | 0.06 | 0.00 | 78 | 1022.0 |
| 20260510071401 | 44 | 238 | 2.0 | 7.0 | 0.00 | 0.06 | 0.00 | 79 | 1022.0 |
| 20260510070901 | 44 | 147 | 3.0 | 6.0 | 0.00 | 0.06 | 0.00 | 79 | 1021.9 |
| 20260510070401 | 44 | 325 | 3.0 | 6.0 | 0.00 | 0.06 | 0.00 | 80 | 1021.8 |
| 20260510065901 | 43 | 175 | 1.0 | 3.0 | 0.00 | 0.06 | 0.00 | 81 | 1021.8 |
| 20260510065401 | 43 | 89 | 2.0 | 9.0 | 0.00 | 0.06 | 0.00 | 81 | 1021.8 |
| 20260510064401 | 43 | 16 | 3.0 | 6.0 | 0.00 | 0.06 | 0.00 | 81 | 1021.7 |
| 20260510063901 | 43 | 190 | 2.0 | 7.0 | 0.00 | 0.06 | 0.00 | 82 | 1021.7 |
| 20260510063400 | 43 | 56 | 2.0 | 7.0 | 0.00 | 0.06 | 0.00 | 82 | 1021.7 |
| 20260510062902 | 42 | 55 | 4.0 | 8.0 | 0.00 | 0.06 | 0.00 | 83 | 1021.6 |
| 20260510061901 | 42 | 347 | 2.0 | 7.0 | 0.00 | 0.06 | 0.00 | 84 | 1021.5 |
| 20260510061401 | 42 | 4 | 3.0 | 7.0 | 0.00 | 0.06 | 0.00 | 84 | 1021.5 |
| 20260510060901 | 41 | 43 | 1.0 | 7.0 | 0.00 | 0.07 | 0.00 | 85 | 1021.4 |
| 20260510060400 | 41 | 18 | 2.0 | 7.0 | 0.00 | 0.07 | 0.00 | 86 | 1021.4 |
| 20260510055901 | 40 | 80 | 2.0 | 6.0 | 0.00 | 0.07 | 0.00 | 88 | 1021.5 |
| 20260510055400 | 40 | 335 | 2.0 | 7.0 | 0.00 | 0.07 | 0.00 | 89 | 1021.6 |
| 20260510054901 | 39 | 86 | 1.0 | 3.0 | 0.00 | 0.07 | 0.00 | 89 | 1021.6 |
| 20260510054401 | 39 | 71 | 1.0 | 3.0 | 0.00 | 0.07 | 0.00 | 89 | 1021.6 |
| 20260510053901 | 39 | 105 | 1.0 | 5.0 | 0.00 | 0.07 | 0.00 | 89 | 1021.7 |
| 20260510052900 | 39 | 236 | 1.0 | 3.0 | 0.00 | 0.07 | 0.00 | 89 | 1021.7 |
| 20260510052400 | 39 | 243 | 1.0 | 5.0 | 0.00 | 0.07 | 0.00 | 89 | 1021.7 |
| 20260510051400 | 39 | 249 | 3.0 | 5.0 | 0.00 | 0.07 | 0.00 | 89 | 1021.7 |
| 20260510050901 | 39 | 270 | 0.0 | 3.0 | 0.00 | 0.07 | 0.00 | 89 | 1021.8 |
| 20260510050402 | 38 | 270 | 1.0 | 2.0 | 0.00 | 0.07 | 0.00 | 89 | 1021.8 |
| 20260510045901 | 38 | 270 | 1.0 | 3.0 | 0.00 | 0.07 | 0.00 | 89 | 1021.9 |
| 20260510045401 | 39 | 270 | 0.0 | 2.0 | 0.00 | 0.07 | 0.00 | 89 | 1021.8 |
| 20260510044902 | 38 | 270 | 1.0 | 3.0 | 0.00 | 0.07 | 0.00 | 88 | 1021.9 |
| 20260510044401 | 39 | 298 | 0.0 | 1.0 | 0.00 | 0.07 | 0.00 | 88 | 1021.9 |
| 20260510043901 | 39 | 342 | 1.0 | 2.0 | 0.00 | 0.07 | 0.00 | 87 | 1021.9 |
| 20260510043401 | 39 | 342 | 0.0 | 2.0 | 0.00 | 0.07 | 0.00 | 87 | 1022.0 |
| 20260510042900 | 39 | 342 | 1.0 | 2.0 | 0.00 | 0.07 | 0.00 | 87 | 1022.0 |
| 20260510042400 | 39 | 347 | 1.0 | 3.0 | 0.00 | 0.07 | 0.00 | 87 | 1022.2 |
| 20260510041901 | 40 | 261 | 1.0 | 3.0 | 0.00 | 0.07 | 0.00 | 88 | 1022.2 |
| 20260510040901 | 40 | 285 | 2.0 | 5.0 | 0.00 | 0.07 | 0.00 | 88 | 1022.2 |
| 20260510040401 | 40 | 175 | 2.0 | 6.0 | 0.00 | 0.07 | 0.00 | 87 | 1022.2 |
| 20260510035901 | 40 | 249 | 0.0 | 3.0 | 0.00 | 0.07 | 0.00 | 87 | 1022.2 |
| 20260510035400 | 40 | 230 | 2.0 | 6.0 | 0.00 | 0.07 | 0.00 | 87 | 1022.2 |
| 20260510034901 | 40 | 150 | 1.0 | 3.0 | 0.00 | 0.07 | 0.00 | 87 | 1022.2 |
| 20260510034401 | 40 | 122 | 1.0 | 5.0 | 0.00 | 0.07 | 0.00 | 87 | 1022.2 |
| 20260510033400 | 40 | 317 | 2.0 | 3.0 | 0.00 | 0.07 | 0.00 | 87 | 1022.3 |
| 20260510032900 | 41 | 263 | 1.0 | 3.0 | 0.00 | 0.07 | 0.00 | 86 | 1022.3 |
| 20260510032401 | 41 | 201 | 1.0 | 3.0 | 0.00 | 0.07 | 0.00 | 86 | 1022.3 |
| 20260510031901 | 41 | 133 | 1.0 | 3.0 | 0.00 | 0.07 | 0.00 | 86 | 1022.4 |
| 20260510030400 | 41 | 32 | 2.0 | 7.0 | 0.00 | 0.07 | 0.00 | 86 | 1022.2 |
| 20260510025901 | 41 | 94 | 2.0 | 7.0 | 0.00 | 0.07 | 0.00 | 86 | 1022.1 |
| 20260510025401 | 41 | 145 | 2.0 | 8.0 | 0.00 | 0.07 | 0.00 | 86 | 1022.0 |
| 20260510023901 | 41 | 320 | 3.0 | 12.0 | 0.00 | 0.07 | 0.00 | 87 | 1021.7 |
| 20260510023401 | 42 | 21 | 3.0 | 12.0 | 0.00 | 0.07 | 0.00 | 87 | 1021.6 |
| 20260510022400 | 42 | 350 | 5.0 | 14.0 | 0.00 | 0.07 | 0.00 | 86 | 1021.6 |
| 20260510021901 | 42 | 3 | 3.0 | 13.0 | 0.00 | 0.07 | 0.00 | 87 | 1021.5 |
| 20260510021400 | 42 | 15 | 5.0 | 10.0 | 0.00 | 0.07 | 0.00 | 87 | 1021.5 |
| 20260510015901 | 42 | 357 | 3.0 | 10.0 | 0.00 | 0.07 | 0.00 | 87 | 1021.6 |
| 20260510015400 | 42 | 17 | 4.0 | 12.0 | 0.00 | 0.07 | 0.00 | 87 | 1021.6 |
| 20260510014901 | 42 | 158 | 4.0 | 9.0 | 0.00 | 0.07 | 0.00 | 87 | 1021.6 |
| 20260510014400 | 42 | 48 | 3.0 | 13.0 | 0.00 | 0.07 | 0.00 | 87 | 1021.6 |
| 20260510013901 | 42 | 15 | 5.0 | 12.0 | 0.00 | 0.07 | 0.00 | 87 | 1021.5 |
| 20260510012401 | 42 | 39 | 5.0 | 10.0 | 0.00 | 0.07 | 0.00 | 88 | 1021.5 |
| 20260510011401 | 42 | 22 | 6.0 | 13.0 | 0.00 | 0.07 | 0.00 | 88 | 1021.4 |
| 20260510010901 | 42 | 0 | 6.0 | 16.0 | 0.00 | 0.07 | 0.00 | 88 | 1021.5 |
| 20260510010400 | 42 | 342 | 5.0 | 10.0 | 0.00 | 0.07 | 0.00 | 88 | 1021.5 |
| 20260510005900 | 42 | 28 | 6.0 | 12.0 | 0.00 | 0.07 | 0.00 | 88 | 1021.5 |
| 20260510005400 | 43 | 1 | 6.0 | 26.0 | 0.00 | 0.07 | 0.00 | 87 | 1021.5 |
| 20260510004401 | 43 | 355 | 5.0 | 12.0 | 0.00 | 0.07 | 0.00 | 87 | 1021.6 |
| 20260510003401 | 43 | 6 | 6.0 | 14.0 | 0.00 | 0.07 | 0.00 | 87 | 1021.7 |
| 20260510002900 | 43 | 8 | 5.0 | 8.0 | 0.00 | 0.07 | 0.00 | 86 | 1021.8 |
| 20260510002401 | 43 | 20 | 5.0 | 13.0 | 0.00 | 0.07 | 0.00 | 87 | 1021.9 |
| 20260510001900 | 43 | 20 | 5.0 | 23.0 | 0.00 | 0.07 | 0.00 | 86 | 1021.9 |
| 20260510001400 | 43 | 18 | 6.0 | 13.0 | 0.00 | 0.07 | 0.00 | 86 | 1021.9 |
| 20260510000901 | 43 | 2 | 6.0 | 15.0 | 0.00 | 0.07 | 0.00 | 86 | 1021.8 |
| 20260510000400 | 44 | 23 | 5.0 | 14.0 | 0.00 | 0.07 | 0.00 | 86 | 1021.8 |
| 20260509235901 | 44 | 25 | 6.0 | 12.0 | 0.00 | 0.07 | 0.00 | 86 | 1021.7 |
| 20260509235400 | 44 | 337 | 3.0 | 13.0 | 0.00 | 0.07 | 0.00 | 86 | 1021.7 |
| 20260509234901 | 44 | 3 | 5.0 | 15.0 | 0.00 | 0.07 | 0.00 | 86 | 1021.7 |
| 20260509234400 | 44 | 19 | 6.0 | 13.0 | 0.00 | 0.07 | 0.00 | 86 | 1021.7 |
| 20260509233901 | 44 | 14 | 5.0 | 12.0 | 0.00 | 0.07 | 0.00 | 86 | 1021.7 |
| 20260509233400 | 44 | 8 | 6.0 | 17.0 | 0.00 | 0.07 | 0.00 | 85 | 1021.8 |
| 20260509232900 | 44 | 6 | 6.0 | 17.0 | 0.00 | 0.07 | 0.00 | 85 | 1021.8 |
| 20260509232400 | 44 | 24 | 6.0 | 15.0 | 0.00 | 0.07 | 0.00 | 85 | 1021.8 |
| 20260509231900 | 44 | 1 | 6.0 | 12.0 | 0.00 | 0.07 | 0.00 | 85 | 1021.8 |
| 20260509231400 | 44 | 27 | 6.0 | 13.0 | 0.00 | 0.07 | 0.00 | 85 | 1021.8 |
| 20260509230946 | 44 | 19 | 6.0 | 13.0 | 0.00 | 0.07 | 0.00 | 85 | 1021.7 |
| 20260509230400 | 44 | 355 | 6.0 | 18.0 | 0.00 | 0.07 | 0.00 | 85 | 1021.7 |
| 20260509225901 | 44 | 22 | 6.0 | 15.0 | 0.00 | 0.07 | 0.07 | 85 | 1021.6 |
| 20260509225400 | 44 | 0 | 5.0 | 13.0 | 0.00 | 0.07 | 0.07 | 86 | 1021.7 |
| 20260509224901 | 44 | 16 | 7.0 | 13.0 | 0.00 | 0.07 | 0.07 | 86 | 1021.7 |
| 20260509224400 | 44 | 4 | 7.0 | 14.0 | 0.00 | 0.07 | 0.07 | 86 | 1021.6 |
| 20260509223901 | 44 | 27 | 8.0 | 14.0 | 0.00 | 0.07 | 0.07 | 86 | 1021.6 |
| 20260509223400 | 44 | 0 | 7.0 | 13.0 | 0.00 | 0.07 | 0.07 | 86 | 1021.6 |
| 20260509222400 | 44 | 18 | 8.0 | 14.0 | 0.00 | 0.07 | 0.07 | 87 | 1021.6 |
| 20260509221901 | 44 | 1 | 6.0 | 16.0 | 0.00 | 0.07 | 0.07 | 87 | 1021.6 |
| 20260509221400 | 44 | 15 | 9.0 | 16.0 | 0.00 | 0.07 | 0.07 | 87 | 1021.6 |
| 20260509220401 | 44 | 345 | 5.0 | 12.0 | 0.00 | 0.07 | 0.07 | 86 | 1021.7 |
| 20260509215901 | 44 | 13 | 8.0 | 18.0 | 0.00 | 0.07 | 0.07 | 86 | 1021.8 |
| 20260509214901 | 44 | 10 | 6.0 | 12.0 | 0.00 | 0.07 | 0.07 | 86 | 1021.7 |
| 20260509214400 | 44 | 8 | 6.0 | 14.0 | 0.00 | 0.07 | 0.07 | 86 | 1021.8 |
| 20260509213901 | 44 | 14 | 8.0 | 17.0 | 0.00 | 0.07 | 0.07 | 86 | 1021.9 |
| 20260509213400 | 44 | 10 | 6.0 | 17.0 | 0.00 | 0.07 | 0.07 | 86 | 1021.8 |
| 20260509212401 | 44 | 23 | 6.0 | 12.0 | 0.00 | 0.07 | 0.07 | 86 | 1021.7 |
| 20260509211900 | 44 | 8 | 5.0 | 10.0 | 0.00 | 0.07 | 0.07 | 86 | 1021.7 |
| 20260509211400 | 44 | 0 | 6.0 | 12.0 | 0.00 | 0.07 | 0.07 | 85 | 1021.8 |
| 20260509210900 | 44 | 19 | 6.0 | 13.0 | 0.00 | 0.07 | 0.07 | 86 | 1021.8 |
| 20260509210400 | 44 | 358 | 7.0 | 16.0 | 0.00 | 0.07 | 0.07 | 86 | 1021.7 |
| 20260509205901 | 44 | 358 | 5.0 | 14.0 | 0.00 | 0.07 | 0.07 | 86 | 1021.7 |
| 20260509205400 | 44 | 24 | 6.0 | 16.0 | 0.00 | 0.07 | 0.07 | 85 | 1021.7 |
| 20260509204901 | 44 | 10 | 7.0 | 14.0 | 0.00 | 0.07 | 0.07 | 85 | 1021.7 |
| 20260509204400 | 44 | 7 | 6.0 | 14.0 | 0.00 | 0.07 | 0.07 | 85 | 1021.6 |
| 20260509203901 | 44 | 13 | 6.0 | 12.0 | 0.00 | 0.07 | 0.07 | 86 | 1021.7 |
| 20260509203401 | 44 | 19 | 5.0 | 12.0 | 0.00 | 0.07 | 0.07 | 86 | 1021.7 |
| 20260509202900 | 44 | 5 | 7.0 | 17.0 | 0.00 | 0.07 | 0.07 | 85 | 1021.6 |
| 20260509202400 | 44 | 3 | 8.0 | 15.0 | 0.00 | 0.07 | 0.07 | 86 | 1021.5 |
| 20260509201901 | 44 | 4 | 7.0 | 14.0 | 0.00 | 0.07 | 0.07 | 86 | 1021.4 |
| 20260509201400 | 44 | 6 | 9.0 | 16.0 | 0.00 | 0.07 | 0.07 | 86 | 1021.4 |
| 20260509200400 | 44 | 15 | 7.0 | 18.0 | 0.00 | 0.07 | 0.07 | 85 | 1021.4 |
| 20260509195900 | 44 | 21 | 8.0 | 14.0 | 0.00 | 0.07 | 0.07 | 85 | 1021.3 |
| 20260509195359 | 44 | 11 | 6.0 | 20.0 | 0.00 | 0.07 | 0.07 | 85 | 1021.2 |
| 20260509194401 | 44 | 20 | 7.0 | 20.0 | 0.00 | 0.07 | 0.07 | 85 | 1021.2 |
| 20260509193901 | 44 | 5 | 9.0 | 20.0 | 0.00 | 0.07 | 0.07 | 85 | 1021.1 |
| 20260509193400 | 44 | 4 | 9.0 | 20.0 | 0.00 | 0.07 | 0.07 | 85 | 1021.1 |
| 20260509192900 | 44 | 4 | 7.0 | 16.0 | 0.00 | 0.07 | 0.07 | 85 | 1021.0 |
| 20260509192400 | 44 | 1 | 9.0 | 18.0 | 0.00 | 0.07 | 0.07 | 86 | 1021.0 |
| 20260509191901 | 44 | 350 | 10.0 | 17.0 | 0.00 | 0.07 | 0.07 | 86 | 1020.9 |
| 20260509191400 | 44 | 355 | 8.0 | 20.0 | 0.00 | 0.07 | 0.07 | 86 | 1020.7 |
| 20260509190900 | 44 | 3 | 10.0 | 16.0 | 0.00 | 0.07 | 0.07 | 86 | 1020.8 |
| 20260509190400 | 44 | 25 | 8.0 | 16.0 | 0.00 | 0.07 | 0.07 | 87 | 1020.8 |
| 20260509185900 | 44 | 3 | 9.0 | 13.0 | 0.00 | 0.07 | 0.07 | 87 | 1020.8 |
| 20260509185400 | 44 | 14 | 9.0 | 17.0 | 0.00 | 0.07 | 0.07 | 87 | 1020.8 |
| 20260509184900 | 44 | 7 | 7.0 | 23.0 | 0.00 | 0.07 | 0.07 | 87 | 1020.8 |
| 20260509184400 | 44 | 11 | 7.0 | 18.0 | 0.00 | 0.07 | 0.07 | 87 | 1020.9 |
| 20260509183900 | 44 | 22 | 9.0 | 16.0 | 0.00 | 0.07 | 0.07 | 88 | 1021.0 |
| 20260509183400 | 44 | 25 | 9.0 | 16.0 | 0.00 | 0.07 | 0.07 | 87 | 1021.0 |
| 20260509182900 | 44 | 14 | 9.0 | 15.0 | 0.00 | 0.07 | 0.07 | 87 | 1020.8 |
| 20260509182400 | 44 | 1 | 7.0 | 18.0 | 0.00 | 0.07 | 0.07 | 87 | 1020.9 |
| 20260509181900 | 44 | 16 | 10.0 | 18.0 | 0.00 | 0.07 | 0.07 | 87 | 1020.9 |
| 20260509181400 | 44 | 8 | 8.0 | 17.0 | 0.00 | 0.07 | 0.07 | 87 | 1020.9 |
| 20260509175900 | 45 | 13 | 9.0 | 20.0 | 0.00 | 0.07 | 0.07 | 87 | 1020.9 |
| 20260509175400 | 45 | 359 | 5.0 | 12.0 | 0.00 | 0.07 | 0.07 | 87 | 1020.9 |
| 20260509174901 | 45 | 5 | 6.0 | 15.0 | 0.00 | 0.07 | 0.07 | 87 | 1020.9 |
| 20260509174400 | 45 | 348 | 7.0 | 15.0 | 0.00 | 0.07 | 0.07 | 87 | 1020.8 |
| 20260509173901 | 45 | 23 | 9.0 | 15.0 | 0.00 | 0.07 | 0.07 | 87 | 1020.5 |
| 20260509173400 | 45 | 7 | 7.0 | 12.0 | 0.00 | 0.07 | 0.07 | 88 | 1020.5 |
| 20260509172900 | 45 | 5 | 7.0 | 15.0 | 0.00 | 0.07 | 0.07 | 88 | 1020.3 |
| 20260509172401 | 46 | 7 | 8.0 | 14.0 | 0.00 | 0.07 | 0.07 | 88 | 1020.4 |
| 20260509171900 | 46 | 6 | 8.0 | 14.0 | 0.00 | 0.07 | 0.07 | 87 | 1020.3 |
| 20260509171400 | 46 | 8 | 9.0 | 20.0 | 0.00 | 0.07 | 0.07 | 87 | 1020.4 |
| 20260509170900 | 46 | 4 | 6.0 | 13.0 | 0.00 | 0.07 | 0.07 | 87 | 1020.4 |
| 20260509170400 | 46 | 352 | 7.0 | 15.0 | 0.00 | 0.07 | 0.07 | 88 | 1020.5 |
| 20260509165900 | 46 | 349 | 5.0 | 12.0 | 0.00 | 0.07 | 0.07 | 87 | 1020.5 |
| 20260509165359 | 46 | 10 | 9.0 | 16.0 | 0.00 | 0.07 | 0.07 | 87 | 1020.4 |
| 20260509164900 | 46 | 357 | 7.0 | 15.0 | 0.00 | 0.07 | 0.07 | 87 | 1020.4 |
| 20260509164400 | 46 | 5 | 7.0 | 13.0 | 0.00 | 0.07 | 0.07 | 87 | 1020.3 |
| 20260509163900 | 46 | 0 | 9.0 | 16.0 | 0.00 | 0.07 | 0.07 | 87 | 1020.2 |
| 20260509163400 | 46 | 1 | 6.0 | 16.0 | 0.00 | 0.07 | 0.07 | 87 | 1020.3 |
| 20260509162901 | 46 | 20 | 6.0 | 13.0 | 0.00 | 0.07 | 0.07 | 87 | 1020.1 |
| 20260509161900 | 47 | 16 | 6.0 | 15.0 | 0.00 | 0.07 | 0.07 | 88 | 1020.2 |
| 20260509160900 | 47 | 5 | 9.0 | 14.0 | 0.00 | 0.07 | 0.07 | 87 | 1020.1 |
| 20260509160400 | 47 | 11 | 7.0 | 17.0 | 0.00 | 0.07 | 0.07 | 87 | 1019.8 |
| 20260509155359 | 47 | 21 | 7.0 | 15.0 | 0.00 | 0.07 | 0.07 | 87 | 1020.0 |
| 20260509154900 | 48 | 13 | 7.0 | 18.0 | 0.00 | 0.07 | 0.07 | 87 | 1019.8 |
| 20260509154401 | 48 | 12 | 8.0 | 16.0 | 0.00 | 0.07 | 0.07 | 88 | 1019.8 |
| 20260509153900 | 48 | 356 | 7.0 | 16.0 | 0.00 | 0.07 | 0.07 | 87 | 1019.9 |
| 20260509153400 | 48 | 14 | 7.0 | 16.0 | 0.00 | 0.07 | 0.07 | 87 | 1019.8 |
| 20260509152900 | 48 | 13 | 7.0 | 14.0 | 0.00 | 0.07 | 0.07 | 88 | 1019.8 |
| 20260509152401 | 48 | 18 | 4.0 | 10.0 | 0.00 | 0.07 | 0.07 | 87 | 1019.8 |
| 20260509151900 | 48 | 8 | 6.0 | 12.0 | 0.00 | 0.07 | 0.07 | 87 | 1019.8 |
| 20260509151400 | 49 | 6 | 6.0 | 12.0 | 0.00 | 0.07 | 0.07 | 87 | 1019.8 |
| 20260509150900 | 49 | 15 | 5.0 | 10.0 | 0.00 | 0.07 | 0.07 | 87 | 1019.9 |
| 20260509150400 | 49 | 358 | 6.0 | 13.0 | 0.00 | 0.07 | 0.07 | 87 | 1019.9 |
| 20260509145900 | 49 | 13 | 7.0 | 12.0 | 0.00 | 0.09 | 0.07 | 87 | 1019.9 |
| 20260509145400 | 49 | 14 | 6.0 | 12.0 | 0.00 | 0.12 | 0.07 | 87 | 1019.9 |
| 20260509143900 | 50 | 1 | 3.0 | 13.0 | 0.00 | 0.12 | 0.07 | 87 | 1019.9 |
| 20260509143400 | 50 | 5 | 5.0 | 13.0 | 0.00 | 0.12 | 0.07 | 87 | 1019.8 |
| 20260509142900 | 50 | 351 | 5.0 | 13.0 | 0.00 | 0.12 | 0.07 | 87 | 1019.7 |
| 20260509142401 | 50 | 8 | 6.0 | 10.0 | 0.00 | 0.12 | 0.07 | 86 | 1019.7 |
| 20260509141900 | 50 | 21 | 7.0 | 15.0 | 0.00 | 0.12 | 0.07 | 86 | 1019.7 |
| 20260509141400 | 51 | 6 | 5.0 | 9.0 | 0.00 | 0.12 | 0.07 | 87 | 1019.7 |
| 20260509140900 | 50 | 13 | 5.0 | 12.0 | 0.00 | 0.12 | 0.07 | 86 | 1019.7 |
| 20260509140400 | 51 | 16 | 6.0 | 12.0 | 0.00 | 0.12 | 0.07 | 86 | 1019.7 |
| 20260509135900 | 51 | 14 | 3.0 | 13.0 | 0.00 | 0.12 | 0.07 | 86 | 1019.8 |
| 20260509135400 | 51 | 353 | 5.0 | 10.0 | 0.00 | 0.12 | 0.07 | 85 | 1019.8 |
| 20260509134900 | 51 | 3 | 3.0 | 10.0 | 0.00 | 0.12 | 0.07 | 85 | 1019.7 |
| 20260509134359 | 51 | 349 | 4.0 | 10.0 | 0.00 | 0.12 | 0.07 | 85 | 1019.7 |
| 20260509133900 | 51 | 4 | 6.0 | 12.0 | 0.00 | 0.12 | 0.07 | 85 | 1019.7 |
| 20260509133400 | 51 | 9 | 3.0 | 12.0 | 0.00 | 0.12 | 0.07 | 85 | 1019.8 |